Flag for Germany Weather past 2 weeks in Sankt Augustin, North Rhine-Westphalia, Germany

Now
91 °F

Sunny.


Feels Like: 88 °F
Forecast: 61 / 74 °F
Wind: 7 mph from Southwest

Location: Koeln / Bonn

Current Time: Aug 3, 2015 at 7:24:12 PM

Latest Report: Aug 3, 2015 at 6:50 PM


Visibility: 10 mi

Pressure: 29.92 "Hg

Humidity: 21%

Dew point: 46 °F

Location of Sankt AugustinLocation

Historic Weather in Sankt Augustin — Graph

°F

Sankt Augustin temperature yesterday

Maximum temperature yesterday: 81 °F (at 3:20 PM)
Minimum temperature yesterday: 50 °F (at 6:20 AM)
Average temperature yesterday: 68 °F

Past Weeks' High & Low Weather Summary

 TemperatureHumidityPressure
High91 °F (Aug 3, 3:50 PM)100% (Jul 31, 4:20 AM)30.15 "Hg (Jul 31, 4:20 AM)
Low48 °F (Jul 26, 3:50 AM)20% (Aug 3, 5:20 PM)29.56 "Hg (Jul 25, 6:50 AM)
Average64 °F68%29.91 "Hg
* Reported Jul 19 6:20 PM — Aug 3 6:20 PM, Sankt Augustin, Weather by CustomWeather, © 2015

Note: Actual official high and low records may vary slightly from our data, if they occured in-between our weather recording intervals... More about our weather records

Advertising

Sankt Augustin weather history for previous 24 hours

 ConditionsComfort  
Time TempWeatherWind HumidityBarometerVisibility
6:20 PM
Mon, Aug 3
91 °FSunny.8 mph20%29.92 "Hg10 mi
5:50 PM91 °FPassing clouds.5 mph23%29.92 "HgN/A
5:20 PM91 °FPassing clouds.7 mph20%29.95 "HgN/A
4:50 PM91 °FSunny.8 mph23%29.95 "Hg10 mi
4:20 PM90 °FSunny.9 mph24%29.95 "Hg10 mi
3:50 PM91 °FSunny.12 mph21%29.95 "Hg10 mi
3:20 PM90 °FSunny.12 mph24%29.98 "Hg10 mi
2:50 PM90 °FSunny.9 mph24%29.95 "Hg10 mi
2:20 PM90 °FSunny.13 mph22%29.98 "Hg10 mi
1:50 PM88 °FSunny.9 mph24%29.98 "Hg10 mi
1:20 PM86 °FSunny.14 mph27%29.98 "Hg10 mi
12:50 PM86 °FSunny.10 mph27%29.98 "Hg10 mi
12:20 PM86 °FSunny.10 mph31%29.98 "Hg10 mi
11:50 AM84 °FSunny.12 mph35%30.01 "Hg10 mi
11:20 AM82 °FSunny.9 mph32%30.01 "Hg10 mi
10:50 AM79 °FSunny.10 mph42%30.01 "Hg10 mi
10:20 AM77 °FSunny.12 mph42%30.01 "Hg10 mi
9:50 AM75 °FSunny.10 mph41%30.01 "Hg10 mi
9:20 AM73 °FSunny.10 mph44%30.01 "Hg10 mi
8:50 AM72 °FSunny.8 mph47%30.01 "Hg10 mi
8:20 AM70 °FSunny.6 mph50%30.01 "Hg10 mi
7:50 AM66 °FSunny.7 mph60%30.01 "Hg10 mi
7:20 AM64 °FSunny.6 mph60%30.01 "Hg10 mi
6:50 AM64 °FClear.3 mph60%30.01 "Hg10 mi
6:20 AM64 °FClear.6 mph60%30.01 "Hg10 mi
5:50 AM63 °FClear.6 mph64%30.01 "Hg10 mi
5:20 AM63 °FClear.6 mph64%30.01 "Hg10 mi
4:50 AM61 °FClear.3 mph68%30.01 "Hg10 mi
4:20 AM61 °FClear.2 mph68%30.01 "Hg10 mi
3:50 AM59 °FClear.3 mph72%30.01 "Hg10 mi
3:20 AM61 °FClear.5 mph68%30.01 "Hg10 mi
2:50 AM64 °FClear.2 mph60%30.04 "Hg10 mi
2:20 AM66 °FClear.6 mph56%30.04 "Hg10 mi
1:50 AM66 °FClear.6 mph56%30.04 "Hg10 mi
1:20 AM66 °FClear.7 mph60%30.04 "Hg10 mi
12:50 AM66 °FClear.7 mph60%30.04 "Hg10 mi
12:20 AM68 °FClear.6 mph56%30.04 "Hg10 mi
11:50 PM
Sun, Aug 2
70 °FClear.6 mph53%30.04 "Hg10 mi
11:20 PM70 °FClear.8 mph53%30.04 "Hg10 mi
10:50 PM70 °FClear.9 mph53%30.04 "Hg10 mi
10:20 PM72 °FClear.9 mph50%30.04 "Hg10 mi
9:50 PM73 °FSunny.9 mph47%30.04 "Hg10 mi
9:20 PM73 °FSunny.8 mph47%30.04 "Hg10 mi
8:50 PM77 °FSunny.6 mph39%30.04 "Hg10 mi
8:20 PM79 °FSunny.6 mph37%30.04 "Hg10 mi
7:50 PM81 °FSunny.7 mph34%30.04 "Hg10 mi
7:20 PM81 °FSunny.7 mph32%30.04 "Hg10 mi
Weather by CustomWeather, © 2015

See weather overviewHow to use our weather pages